| time (UTC) | temp F | wind direction | speed MPH | gust MPH | rain 1hr in | rain 24hr in | rain mn in | humidity % | barometer mb |
| 20260504201554 | 79 | 332 | 8.0 | 20.0 | 0.00 | 0.00 | 0.00 | 33 | 1001.1 |
| 20260504201057 | 78 | 311 | 9.0 | 20.0 | 0.00 | 0.00 | 0.00 | 33 | 1001.1 |
| 20260504200556 | 79 | 36 | 10.0 | 19.0 | 0.00 | 0.00 | 0.00 | 33 | 1001.1 |
| 20260504200057 | 79 | 318 | 9.0 | 19.0 | 0.00 | 0.00 | 0.00 | 32 | 1001.0 |
| 20260504195601 | 79 | 345 | 7.0 | 19.0 | 0.00 | 0.00 | 0.00 | 33 | 1001.1 |
| 20260504195059 | 79 | 292 | 9.0 | 17.0 | 0.00 | 0.00 | 0.00 | 33 | 1001.1 |
| 20260504194606 | 79 | 17 | 9.0 | 20.0 | 0.00 | 0.00 | 0.00 | 31 | 1000.8 |
| 20260504194056 | 80 | 314 | 9.0 | 20.0 | 0.00 | 0.00 | 0.00 | 31 | 1000.8 |
| 20260504193557 | 80 | 315 | 9.0 | 20.0 | 0.00 | 0.00 | 0.00 | 31 | 1000.7 |
| 20260504193109 | 81 | 26 | 6.0 | 15.0 | 0.00 | 0.00 | 0.00 | 30 | 1000.7 |
| 20260504192555 | 80 | 315 | 9.0 | 19.0 | 0.00 | 0.00 | 0.00 | 28 | 1000.6 |
| 20260504192055 | 80 | 297 | 10.0 | 23.0 | 0.00 | 0.00 | 0.00 | 28 | 1000.6 |
| 20260504191556 | 80 | 11 | 12.0 | 23.0 | 0.00 | 0.00 | 0.00 | 28 | 1000.5 |
| 20260504191056 | 80 | 309 | 10.0 | 18.0 | 0.00 | 0.00 | 0.00 | 29 | 1000.5 |
| 20260504190559 | 80 | 295 | 9.0 | 18.0 | 0.00 | 0.00 | 0.00 | 28 | 1000.4 |
| 20260504190114 | 80 | 306 | 8.0 | 17.0 | 0.00 | 0.00 | 0.00 | 29 | 1000.6 |
| 20260504185555 | 79 | 263 | 9.0 | 21.0 | 0.00 | 0.00 | 0.00 | 29 | 1000.6 |
| 20260504185057 | 79 | 5 | 9.0 | 21.0 | 0.00 | 0.00 | 0.00 | 27 | 1000.6 |
| 20260504184605 | 79 | 317 | 9.0 | 17.0 | 0.00 | 0.00 | 0.00 | 28 | 1000.6 |
| 20260504184056 | 80 | 288 | 8.0 | 17.0 | 0.00 | 0.00 | 0.00 | 28 | 1000.6 |
| 20260504183559 | 80 | 295 | 8.0 | 16.0 | 0.00 | 0.00 | 0.00 | 29 | 1000.7 |
| 20260504183056 | 80 | 274 | 9.0 | 16.0 | 0.00 | 0.00 | 0.00 | 29 | 1000.6 |
| 20260504182559 | 80 | 305 | 8.0 | 15.0 | 0.00 | 0.00 | 0.00 | 29 | 1000.6 |
| 20260504182055 | 79 | 277 | 5.0 | 18.0 | 0.00 | 0.00 | 0.00 | 29 | 1000.6 |
| 20260504181554 | 79 | 301 | 10.0 | 19.0 | 0.00 | 0.00 | 0.00 | 27 | 1000.7 |
| 20260504181056 | 80 | 311 | 6.0 | 21.0 | 0.00 | 0.00 | 0.00 | 30 | 1000.8 |
| 20260504180558 | 79 | 313 | 11.0 | 21.0 | 0.00 | 0.00 | 0.00 | 31 | 1000.8 |
| 20260504180056 | 79 | 239 | 9.0 | 18.0 | 0.00 | 0.00 | 0.00 | 29 | 1000.7 |
| 20260504175600 | 79 | 317 | 10.0 | 19.0 | 0.00 | 0.00 | 0.00 | 30 | 1000.9 |
| 20260504175059 | 78 | 294 | 11.0 | 20.0 | 0.00 | 0.00 | 0.00 | 30 | 1000.8 |
| 20260504174617 | 78 | 267 | 9.0 | 28.0 | 0.00 | 0.00 | 0.00 | 31 | 1000.8 |
| 20260504174053 | 78 | 292 | 15.0 | 28.0 | 0.00 | 0.00 | 0.00 | 31 | 1000.8 |
| 20260504173555 | 78 | 299 | 10.0 | 18.0 | 0.00 | 0.00 | 0.00 | 31 | 1000.8 |
| 20260504173120 | 78 | 281 | 11.0 | 26.0 | 0.00 | 0.00 | 0.00 | 31 | 1000.7 |
| 20260504172555 | 78 | 295 | 12.0 | 26.0 | 0.00 | 0.00 | 0.00 | 32 | 1000.7 |
| 20260504172101 | 78 | 291 | 9.0 | 21.0 | 0.00 | 0.00 | 0.00 | 32 | 1000.7 |
| 20260504171558 | 78 | 348 | 8.0 | 23.0 | 0.00 | 0.00 | 0.00 | 31 | 1000.5 |
| 20260504171056 | 78 | 298 | 10.0 | 23.0 | 0.00 | 0.00 | 0.00 | 31 | 1000.5 |
| 20260504170557 | 78 | 309 | 11.0 | 26.0 | 0.00 | 0.00 | 0.00 | 32 | 1000.5 |
| 20260504160105 | 77 | 286 | 7.0 | 18.0 | 0.00 | 0.00 | 0.00 | 33 | 1000.5 |
| 20260504151056 | 71 | 234 | 7.0 | 14.0 | 0.00 | 0.00 | 0.00 | 46 | 1001.0 |
| 20260504150559 | 71 | 265 | 7.0 | 14.0 | 0.00 | 0.00 | 0.00 | 46 | 1000.9 |
| 20260504141057 | 61 | 215 | 2.0 | 5.0 | 0.00 | 0.00 | 0.00 | 57 | 1001.4 |
| 20260504140557 | 61 | 0 | 2.0 | 5.0 | 0.00 | 0.00 | 0.00 | 57 | 1001.4 |
| 20260504140109 | 60 | 215 | 2.0 | 5.0 | 0.00 | 0.00 | 0.00 | 58 | 1001.6 |
| 20260504130559 | 53 | 0 | 1.0 | 3.0 | 0.00 | 0.00 | 0.00 | 67 | 1001.6 |
| 20260504110555 | 49 | 0 | 0.0 | 3.0 | 0.00 | 0.00 | 0.00 | 71 | 1001.8 |
| 20260504110118 | 49 | 0 | 0.0 | 3.0 | 0.00 | 0.00 | 0.00 | 71 | 1001.8 |
| 20260504100556 | 49 | 0 | 0.0 | 2.0 | 0.00 | 0.00 | 0.00 | 68 | 1002.4 |
| 20260504100103 | 49 | 0 | 0.0 | 3.0 | 0.00 | 0.00 | 0.00 | 68 | 1002.3 |
| 20260504090118 | 49 | 0 | 0.0 | 2.0 | 0.00 | 0.00 | 0.00 | 67 | 1003.1 |
| 20260504081558 | 50 | 230 | 1.0 | 4.0 | 0.00 | 0.00 | 0.00 | 67 | 1003.4 |
| 20260504081057 | 49 | 230 | 2.0 | 4.0 | 0.00 | 0.00 | 0.00 | 67 | 1003.7 |
| 20260504080556 | 49 | 230 | 0.0 | 4.0 | 0.00 | 0.00 | 0.00 | 67 | 1003.8 |
| 20260504060103 | 51 | 231 | 1.0 | 5.0 | 0.00 | 0.00 | 0.00 | 67 | 1005.6 |
| 20260504050557 | 54 | 0 | 0.0 | 1.0 | 0.00 | 0.00 | 0.00 | 59 | 1006.0 |
| 20260504045600 | 54 | 0 | 0.0 | 2.0 | 0.00 | 0.00 | 0.00 | 57 | 1006.2 |
| 20260504045057 | 54 | 230 | 1.0 | 2.0 | 0.00 | 0.00 | 0.00 | 55 | 1006.3 |
| 20260504044604 | 55 | 0 | 0.0 | 0.0 | 0.00 | 0.00 | 0.00 | 54 | 1006.3 |
| 20260504044057 | 55 | 0 | 0.0 | 0.0 | 0.00 | 0.00 | 0.00 | 53 | 1006.3 |
| 20260504043557 | 56 | 0 | 0.0 | 0.0 | 0.00 | 0.00 | 0.00 | 52 | 1006.3 |
| 20260504043057 | 56 | 0 | 0.0 | 0.0 | 0.00 | 0.00 | 0.00 | 52 | 1006.4 |
| 20260504042557 | 57 | 0 | 0.0 | 0.0 | 0.00 | 0.00 | 0.00 | 50 | 1006.5 |
| 20260504042056 | 57 | 0 | 0.0 | 0.0 | 0.00 | 0.00 | 0.00 | 50 | 1006.5 |
| 20260504041559 | 58 | 0 | 0.0 | 0.0 | 0.00 | 0.00 | 0.00 | 48 | 1006.5 |
| 20260504041056 | 58 | 0 | 0.0 | 1.0 | 0.00 | 0.00 | 0.00 | 46 | 1006.6 |
| 20260504040556 | 59 | 0 | 0.0 | 1.0 | 0.00 | 0.00 | 0.00 | 45 | 1006.5 |
| 20260504040106 | 59 | 0 | 0.0 | 1.0 | 0.00 | 0.00 | 0.00 | 44 | 1006.5 |
| 20260504035555 | 59 | 0 | 0.0 | 4.0 | 0.00 | 0.00 | 0.00 | 43 | 1006.6 |
| 20260504035056 | 59 | 0 | 0.0 | 4.0 | 0.00 | 0.00 | 0.00 | 43 | 1006.7 |
| 20260504034603 | 60 | 262 | 0.0 | 3.0 | 0.00 | 0.00 | 0.00 | 42 | 1006.7 |
| 20260504034057 | 60 | 0 | 0.0 | 3.0 | 0.00 | 0.00 | 0.00 | 41 | 1006.8 |
| 20260504033556 | 61 | 274 | 1.0 | 3.0 | 0.00 | 0.00 | 0.00 | 40 | 1006.9 |
| 20260504033114 | 61 | 274 | 1.0 | 3.0 | 0.00 | 0.00 | 0.00 | 40 | 1007.0 |
| 20260504032557 | 61 | 275 | 1.0 | 6.0 | 0.00 | 0.00 | 0.00 | 39 | 1007.2 |
| 20260504032056 | 62 | 275 | 1.0 | 6.0 | 0.00 | 0.00 | 0.00 | 38 | 1007.2 |
| 20260504031557 | 63 | 275 | 2.0 | 4.0 | 0.00 | 0.00 | 0.00 | 37 | 1007.3 |
| 20260504031055 | 63 | 280 | 1.0 | 4.0 | 0.00 | 0.00 | 0.00 | 36 | 1007.3 |
| 20260504030555 | 64 | 280 | 1.0 | 6.0 | 0.00 | 0.00 | 0.00 | 35 | 1007.3 |
| 20260504030056 | 64 | 280 | 2.0 | 6.0 | 0.00 | 0.00 | 0.00 | 35 | 1007.5 |
| 20260504025556 | 64 | 277 | 2.0 | 4.0 | 0.00 | 0.00 | 0.00 | 35 | 1007.4 |
| 20260504025056 | 64 | 288 | 2.0 | 4.0 | 0.00 | 0.00 | 0.00 | 35 | 1007.4 |
| 20260504024605 | 64 | 286 | 2.0 | 4.0 | 0.00 | 0.00 | 0.00 | 35 | 1007.5 |
| 20260504024056 | 65 | 288 | 2.0 | 6.0 | 0.00 | 0.00 | 0.00 | 35 | 1007.5 |
| 20260504023556 | 65 | 288 | 2.0 | 7.0 | 0.00 | 0.00 | 0.00 | 34 | 1007.5 |
| 20260504023056 | 65 | 283 | 2.0 | 7.0 | 0.00 | 0.00 | 0.00 | 34 | 1007.4 |
| 20260504022556 | 65 | 287 | 2.0 | 7.0 | 0.00 | 0.00 | 0.00 | 34 | 1007.4 |
| 20260504022056 | 65 | 285 | 3.0 | 7.0 | 0.00 | 0.00 | 0.00 | 33 | 1007.3 |
| 20260504021559 | 66 | 284 | 2.0 | 9.0 | 0.00 | 0.00 | 0.00 | 33 | 1007.4 |
| 20260504021056 | 66 | 282 | 4.0 | 9.0 | 0.00 | 0.00 | 0.00 | 32 | 1007.5 |
| 20260504020556 | 66 | 290 | 4.0 | 8.0 | 0.00 | 0.00 | 0.00 | 32 | 1007.4 |
| 20260504020100 | 67 | 274 | 3.0 | 9.0 | 0.00 | 0.00 | 0.00 | 32 | 1007.4 |
| 20260504015556 | 67 | 280 | 3.0 | 9.0 | 0.00 | 0.00 | 0.00 | 31 | 1007.5 |
| 20260504015058 | 67 | 275 | 4.0 | 9.0 | 0.00 | 0.00 | 0.00 | 30 | 1007.4 |
| 20260504014558 | 67 | 269 | 4.0 | 9.0 | 0.00 | 0.00 | 0.00 | 30 | 1007.1 |
| 20260504014058 | 67 | 267 | 4.0 | 9.0 | 0.00 | 0.00 | 0.00 | 31 | 1007.3 |
| 20260504013555 | 68 | 267 | 4.0 | 8.0 | 0.00 | 0.00 | 0.00 | 30 | 1007.3 |
| 20260504013057 | 68 | 269 | 5.0 | 8.0 | 0.00 | 0.00 | 0.00 | 30 | 1007.5 |
| 20260504012556 | 68 | 271 | 5.0 | 9.0 | 0.00 | 0.00 | 0.00 | 29 | 1007.4 |
| 20260504012056 | 69 | 280 | 5.0 | 9.0 | 0.00 | 0.00 | 0.00 | 29 | 1007.3 |
| 20260504011601 | 69 | 265 | 5.0 | 9.0 | 0.00 | 0.00 | 0.00 | 28 | 1007.4 |
| 20260504011056 | 70 | 275 | 5.0 | 9.0 | 0.00 | 0.00 | 0.00 | 27 | 1007.4 |
| 20260504010556 | 70 | 262 | 5.0 | 9.0 | 0.00 | 0.00 | 0.00 | 27 | 1007.4 |
| 20260504005556 | 71 | 256 | 3.0 | 9.0 | 0.00 | 0.00 | 0.00 | 26 | 1007.4 |
| 20260504005100 | 71 | 257 | 4.0 | 9.0 | 0.00 | 0.00 | 0.00 | 26 | 1007.4 |
| 20260504004556 | 72 | 287 | 5.0 | 9.0 | 0.00 | 0.00 | 0.00 | 26 | 1007.4 |
| 20260504004058 | 72 | 269 | 3.0 | 7.0 | 0.00 | 0.00 | 0.00 | 25 | 1007.5 |
| 20260504003557 | 73 | 269 | 3.0 | 7.0 | 0.00 | 0.00 | 0.00 | 25 | 1007.6 |
| 20260504003056 | 73 | 279 | 2.0 | 9.0 | 0.00 | 0.00 | 0.00 | 24 | 1007.5 |
| 20260504002556 | 73 | 282 | 3.0 | 9.0 | 0.00 | 0.00 | 0.00 | 24 | 1007.4 |
| 20260504002057 | 73 | 281 | 4.0 | 9.0 | 0.00 | 0.00 | 0.00 | 24 | 1007.5 |
| 20260504001614 | 74 | 334 | 2.0 | 8.0 | 0.00 | 0.00 | 0.00 | 25 | 1007.5 |
| 20260504001055 | 74 | 338 | 2.0 | 8.0 | 0.00 | 0.00 | 0.00 | 25 | 1007.4 |
| 20260504000555 | 74 | 315 | 4.0 | 7.0 | 0.00 | 0.00 | 0.00 | 25 | 1007.4 |
| 20260504000056 | 74 | 321 | 2.0 | 9.0 | 0.00 | 0.00 | 0.00 | 25 | 1007.6 |
| 20260503235555 | 74 | 320 | 4.0 | 10.0 | 0.00 | 0.00 | 0.00 | 25 | 1007.5 |
| 20260503235055 | 74 | 309 | 4.0 | 10.0 | 0.00 | 0.00 | 0.00 | 24 | 1007.7 |
| 20260503234557 | 74 | 306 | 3.0 | 10.0 | 0.00 | 0.00 | 0.00 | 24 | 1007.7 |
| 20260503234056 | 74 | 331 | 5.0 | 12.0 | 0.00 | 0.00 | 0.00 | 23 | 1007.7 |
| 20260503233557 | 74 | 5 | 4.0 | 12.0 | 0.00 | 0.00 | 0.00 | 24 | 1007.8 |
| 20260503233057 | 74 | 319 | 5.0 | 11.0 | 0.00 | 0.00 | 0.00 | 23 | 1007.7 |
| 20260503232600 | 75 | 306 | 4.0 | 11.0 | 0.00 | 0.00 | 0.00 | 23 | 1007.7 |
| 20260503232057 | 74 | 304 | 3.0 | 13.0 | 0.00 | 0.00 | 0.00 | 25 | 1007.8 |
| 20260503231558 | 74 | 269 | 5.0 | 13.0 | 0.00 | 0.00 | 0.00 | 24 | 1007.8 |
| 20260503231058 | 74 | 265 | 6.0 | 10.0 | 0.00 | 0.00 | 0.00 | 24 | 1007.7 |
| 20260503230558 | 74 | 279 | 4.0 | 11.0 | 0.00 | 0.00 | 0.00 | 24 | 1007.9 |
| 20260503230058 | 74 | 301 | 5.0 | 11.0 | 0.00 | 0.00 | 0.00 | 24 | 1007.8 |
| 20260503225556 | 74 | 304 | 7.0 | 12.0 | 0.00 | 0.00 | 0.00 | 24 | 1007.9 |
| 20260503225055 | 74 | 297 | 8.0 | 15.0 | 0.00 | 0.00 | 0.00 | 23 | 1007.8 |
| 20260503224557 | 74 | 305 | 8.0 | 15.0 | 0.00 | 0.00 | 0.00 | 23 | 1007.8 |
| 20260503224056 | 74 | 312 | 5.0 | 11.0 | 0.00 | 0.00 | 0.00 | 24 | 1007.9 |
| 20260503223557 | 74 | 271 | 5.0 | 11.0 | 0.00 | 0.00 | 0.00 | 24 | 1008.0 |
| 20260503223056 | 74 | 276 | 6.0 | 13.0 | 0.00 | 0.00 | 0.00 | 24 | 1008.1 |
| 20260503222559 | 74 | 15 | 7.0 | 13.0 | 0.00 | 0.00 | 0.00 | 24 | 1008.0 |
| 20260503222056 | 74 | 303 | 7.0 | 13.0 | 0.00 | 0.00 | 0.00 | 23 | 1008.1 |
| 20260503221556 | 75 | 300 | 5.0 | 9.0 | 0.00 | 0.00 | 0.00 | 23 | 1008.0 |
| 20260503221057 | 74 | 269 | 5.0 | 13.0 | 0.00 | 0.00 | 0.00 | 22 | 1008.1 |
| 20260503220554 | 74 | 284 | 6.0 | 13.0 | 0.00 | 0.00 | 0.00 | 22 | 1008.1 |
| 20260503220110 | 74 | 301 | 6.0 | 13.0 | 0.00 | 0.00 | 0.00 | 22 | 1008.2 |
| 20260503215555 | 74 | 284 | 4.0 | 13.0 | 0.00 | 0.00 | 0.00 | 23 | 1008.2 |
| 20260503215056 | 74 | 304 | 5.0 | 13.0 | 0.00 | 0.00 | 0.00 | 24 | 1008.2 |
| 20260503214554 | 74 | 298 | 5.0 | 14.0 | 0.00 | 0.00 | 0.00 | 24 | 1008.2 |
| 20260503214101 | 74 | 26 | 6.0 | 14.0 | 0.00 | 0.00 | 0.00 | 22 | 1008.3 |
| 20260503213601 | 74 | 304 | 4.0 | 13.0 | 0.00 | 0.00 | 0.00 | 23 | 1008.4 |
| 20260503213059 | 74 | 41 | 4.0 | 13.0 | 0.00 | 0.00 | 0.00 | 22 | 1008.4 |
| 20260503212558 | 74 | 27 | 5.0 | 16.0 | 0.00 | 0.00 | 0.00 | 22 | 1008.5 |
| 20260503212056 | 74 | 324 | 7.0 | 16.0 | 0.00 | 0.00 | 0.00 | 24 | 1008.5 |
| 20260503211607 | 74 | 284 | 6.0 | 16.0 | 0.00 | 0.00 | 0.00 | 23 | 1008.4 |
| 20260503211059 | 73 | 41 | 6.0 | 14.0 | 0.00 | 0.00 | 0.00 | 24 | 1008.4 |
| 20260503210557 | 74 | 31 | 6.0 | 14.0 | 0.00 | 0.00 | 0.00 | 24 | 1008.5 |
| 20260503210059 | 74 | 346 | 5.0 | 14.0 | 0.00 | 0.00 | 0.00 | 24 | 1008.5 |
| 20260503205556 | 74 | 325 | 6.0 | 13.0 | 0.00 | 0.00 | 0.00 | 24 | 1008.5 |
| 20260503205101 | 74 | 28 | 5.0 | 14.0 | 0.00 | 0.00 | 0.00 | 25 | 1008.5 |
| 20260503204606 | 74 | 22 | 3.0 | 14.0 | 0.00 | 0.00 | 0.00 | 25 | 1008.5 |
| 20260503204056 | 75 | 346 | 5.0 | 14.0 | 0.00 | 0.00 | 0.00 | 24 | 1008.6 |
| 20260503203556 | 75 | 352 | 6.0 | 16.0 | 0.00 | 0.00 | 0.00 | 25 | 1008.6 |
| 20260503203055 | 75 | 296 | 4.0 | 16.0 | 0.00 | 0.00 | 0.00 | 24 | 1008.6 |
| 20260503202558 | 75 | 22 | 9.0 | 16.0 | 0.00 | 0.00 | 0.00 | 23 | 1008.8 |
| 20260503202057 | 75 | 338 | 7.0 | 15.0 | 0.00 | 0.00 | 0.00 | 24 | 1008.6 |